STARLINK-3756 (52309 NORAD) Tracking and Keplerian Element Data

This shows tracking and keplerian element data for the satellite.

Feedback or suggestion? Click here.




ElementValue
Catalog52309
NameSTARLINK-3756
Epoch Orbit130
Epoch Day167.08334491
Epoch Year2022
RAAN100.6291
Inclination53.2158
Eccentricity0.0003559
Argument of Perigee2.8049
Mean Anonmoly309.6619
Mean Motion15.7327854
Decay Rate-0.00049805
L11 52309U 22041BA 22167.08334491 -.00049805 00000+0 -35119-3 0 9997
L22 52309 53.2158 100.6291 0003559 2.8049 309.6619 15.73278540 1309

Live tracking and technical data element details for STARLINK-3756 (NORAD 52309). STARLINK-3756 can be tracked NOW for your location showing map with azimuth and elevation plus other details from your city location.

Track the satellite on the map from your city or location and see movement details for azimuth, elevation, latitude, longitude, range, height, and movement on the map or in text.







IsCatalogInMostPopularTable: catalog: 52309, numindb: 8
Update: records affected: 1



GetName: 52309 STARLINK-3756

Hit Count: updated at: Mon, 27 Jun 2022 04:51:44 GMT